• MPC Preparation (Info)

  • MPEC 2014-Q36 : 2014 QY33

    The following Minor Planet Electronic Circular may be linked-to from your own Web pages, but must not otherwise be redistributed electronically.

    A form allowing access to any MPEC is at the bottom of this page.


    Read MPEC 2014-Q35 Read MPEC 2014-Q37


    M.P.E.C. 2014-Q36                                Issued 2014 Aug. 24, 14:11 UT
    
         The Minor Planet Electronic Circulars contain information on unusual
             minor planets and routine data on comets.  They are published
       on behalf of Commission 20 of the International Astronomical Union by the
              Minor Planet Center, Smithsonian Astrophysical Observatory,
                              Cambridge, MA 02138, U.S.A.
    
                 Prepared using the Tamkin Foundation Computer Network
    
                                  MPC@CFA.HARVARD.EDU
                URL https://www.minorplanetcenter.net/    ISSN 1523-6714
    
                                       2014 QY33
    
    Observations:
         K14Q33Y* C2014 08 22.42842 22 29 21.830-05 30 17.37         21.4 wLEQ036F51
         K14Q33Y  C2014 08 22.44017 22 29 25.550-05 29 42.30         21.3 wLEQ036F51
         K14Q33Y  C2014 08 22.45190 22 29 29.284-05 29 07.40         21.2 wLEQ036F51
         K14Q33Y _C2014 08 23.36170622 35 50.369-04 38 03.52         20.2 RtEQ036568
         K14Q33Y _C2014 08 23.36295822 35 50.894-04 37 58.81         20.2 RtEQ036568
         K14Q33Y _C2014 08 23.36421322 35 51.410-04 37 54.18         20.2 RtEQ036568
         K14Q33Y  C2014 08 23.44137 22 36 23.532-04 33 03.03         21.0 wLEQ036F51
         K14Q33Y  C2014 08 23.45203 22 36 27.940-04 32 22.14         21.0 wLEQ036F51
         K14Q33Y  C2014 08 23.45357 22 36 28.591-04 32 15.92         20.9 wLEQ036F51
         K14Q33Y  C2014 08 23.46425 22 36 33.061-04 31 34.25         21.1 wLEQ036F51
         K14Q33Y  C2014 08 23.46580 22 36 33.696-04 31 28.50         21.2 wLEQ036F51
         K14Q33Y  C2014 08 23.47649 22 36 38.180-04 30 46.87         21.3 wLEQ036F51
         K14Q33Y  C2014 08 23.47804 22 36 38.801-04 30 40.91         21.2 wLEQ036F51
         K14Q33Y KC2014 08 24.33134 22 44 17.07 -03 28 45.8          20.2 RqEQ036H36
         K14Q33Y KC2014 08 24.35927 22 44 32.60 -03 26 27.2          20.7 RqEQ036H36
    
    Observer details:
    568 Mauna Kea.  Observers R. J. Wainscoat, L. Wells.  Measurers M. Micheli,
        R. J. Wainscoat.  3.6-m Canada-France-Hawaii Telescope + CCD.
    F51 Pan-STARRS 1, Haleakala.  Observers N. Primak, A. Schultz, T. Goggia,
        M. Willman.  Measurers B. Bolin, K. Chambers, S. Chastel, L. Denneau,
        H. Flewelling, M. Huber, E. Magnier, E. Schunova, R. Wainscoat, C. Waters.
        1.8-m Ritchey-Chretien + CCD.
    H36 Sandlot Observatory, Scranton.  Observer G. Hug.  0.56-m reflector + CCD.
    
    Orbital elements:
    2014 QY33                                                Earth MOID = 0.0020 AU
    Epoch 2014 Dec. 9.0 TT = JDT 2457000.5                  MPC
    M  20.77858              (2000.0)            P               Q
    n   0.36578273     Peri.  235.67349     +0.74532946     -0.66668723
    a   1.9363651      Node   166.13730     +0.61635718     +0.68705264
    e   0.5857441      Incl.    0.83276     +0.25414133     +0.28894083
    P   2.69           H   26.2           G   0.15           U   7
    Residuals in seconds of arc
    140822 F51  0.1+  0.1+    140823 568  0.2-  0.3-    140823 F51  0.0   0.0
    140822 F51  0.1-  0.2+    140823 F51  0.3+  0.0     140823 F51  0.1+  0.0
    140822 F51  0.1-  0.0     140823 F51  0.1-  0.3-    140823 F51  0.4-  0.1-
    140823 568  0.2-  0.2-    140823 F51  0.1+  0.0     140824 H36  0.1+  1.0+
    140823 568  0.1-  0.2-    140823 F51  0.2+  0.3+    140824 H36  0.6-  0.2-
    
    Ephemeris:
    2014 QY33                a,e,i = 1.94, 0.59, 1                   q = 0.8022
    Date    TT    R. A. (2000) Decl.     Delta      r     Elong.  Phase     V
    2014 07 25    21 46 24.8 -11 15 07   0.3355  1.3306   156.7    17.6    25.4
    ...
    2014 08 09    21 57 11.2 -09 48 46   0.1863  1.1966   167.9    10.2    23.6
    ...
    2014 08 17    22 09 03.0 -08 13 05   0.1146  1.1261   172.0     7.2    22.3
    ...
    2014 08 23    22 33 05.3 -04 58 53   0.06390 1.0745   170.7     8.7    21.0
    2014 08 24    22 41 07.3 -03 53 12   0.05576 1.0660   169.4    10.0    20.7
    2014 08 25    22 51 48.7 -02 25 17   0.04777 1.0576   167.4    12.1    20.4
    ...
    2014 08 31    04 36 47.8 +28 35 07   0.01763 1.0084    85.6    93.4    20.8
    ...
    2014 09 08    08 51 13.1 +17 21 12   0.07452 0.9472    34.6   142.8    27.7
    ...
    2014 09 23    09 30 30.3 +13 21 31   0.2048  0.8544    39.1   132.3    28.4
    
    A. U. Tomatic                (C) Copyright 2014 MPC           M.P.E.C. 2014-Q36
    

    Read MPEC 2014-Q35 Read MPEC 2014-Q37


    MPEC number:

    Enter an MPEC number in one of the following forms:

    • 1997-B01 (the full form)
    • J97B01 (the packed version of the full form)
    • B01 (the abbreviated form)